www.pogodaiklimat.ru

Погода и климат >> Архив погоды >> Дания >> Сяелсмарк


ПОГОДА в Сяелсмарке

  • Прогноз погоды в Сяелсмарке
  • Монитор погоды в Сяелсмарке

АРХИВ ПОГОДЫ в Сяелсмарке

Время (UTC), дата Ветер
(напр.,м/с)
 
Видим.   Явления Облачность Т
(С)
Тd
(С)
f
(%)
Тe
(С)
Тes
(С)
Комфортность P
(гПа)
Po
(гПа)
Тmin
(С)
Tmax
(С)
R
(мм)
R24
(мм)
S
(см)
01 13.09 ЮЗ 3 18 км 10/10 480 м
[]
+14.9 +13.3 90 +14 +14 1019.8 1014.8
02 13.09 ЮЗ 3 17 км 10/10 360 м
[]
+14.8 +13.5 92 +14 +14 1019.0 1014.0
03 13.09 Ю 1 4700 м дождь {морось} 9/9 180 м
[]
+14.4 +14.0 97 +15 +15 1017.9 1012.9 3
04 13.09 СЗ 4 5000 м сильн. морось {дождь} 9/9 180 м
[]
+14.0 +13.7 98 +12 +12 1018.5 1013.5 2
05 13.09 СЗ 4 19 км дождь {морось} 9/9 210 м
[]
+12.9 +12.2 96 +11 +11 1020.0 1015.0 1
06 13.09 З 3
{10}
45 км в посл. час морось {ливн. осадки, дождь} 9/9 500 м
[]
+12.8 +12.0 95 +11 +11 1020.9 1015.9 +12.5 +15.6 4
07 13.09 З 5 35 км 1/1 500 м
[]
+14.0 +11.7 86 +12 +13 1021.7 1016.7
08 13.09 З 5 28 км 8/8 600 м
[]
+14.5 +10.5 77 +13 +13 1022.7 1017.7
09 13.09 З 8-13
{14}
29 км 4/4 750 м
[]
+15.1 +9.8 71 +13 +14 1023.6 1018.7
10 13.09 З 8 30 км 1/1 870 м
[]
+15.2 +9.3 68 +13 +15 1024.5 1019.5
11 13.09 З 8 30 км 4/4 900 м
[]
+15.7 +8.9 64 +14 +15 1025.1 1020.1
12 13.09 СЗ 8-15
{16}
30 км 4/4 1020 м
[]
+15.7 +8.7 63 +14 +15 1025.6 1020.6
13 13.09 З 8 н/о 4/4 1200 м
[]
+16.5 +6.2 51 +15 +16 1026.4 1021.4
14 13.09 СЗ 7 29 км 5/5 1080 м
[]
+16.2 +8.1 59 +15 +16 1027.0 1022.0
15 13.09 З 6
{14}
35 км 6/6 1080 м
[]
+15.3 +8.1 62 +14 +14 1027.3 1022.3
16 13.09 З 6 35 км 1/1 1230 м
[]
+15.2 +8.1 63 +14 +14 1027.5 1022.5
17 13.09 З 5 40 км 1/1 1300 м
[]
+14.5 +7.9 65 +13 +13 1028.0 1022.9
18 13.09 З 5
{14}
45 км 1/1 1140 м
[]
+13.5 +7.9 69 +12 +12 1028.7 1023.7 +12.7 +17.2
19 13.09 З 6 40 км ясно +13.2 +7.1 66 +11 +11 1029.0 1023.9
20 13.09 З 5 30 км 1/1 1050 м
[]
+12.6 +7.4 71 +11 +11 1029.3 1024.3
21 13.09 З 4
{11}
26 км ясно +12.2 +7.6 73 +10 +10 1030.1 1025.0
22 13.09 З 5 23 км ясно +12.0 +7.7 75 +10 +10 1030.3 1025.2
23 13.09 З 5 23 км ясно +12.2 +8.0 75 +10 +10 1030.1 1025.1
00 14.09 З 4
{11}
23 км ясно +12.0 +7.9 76 +10 +10 1030.0 1024.9
01 14.09 З 4 21 км 1/1 800 м
[]
+11.7 +8.3 80 +10 +10 1030.4 1025.3
02 14.09 З 4 22 км ясно +11.6 +8.1 79 +10 +10 1030.5 1025.4
03 14.09 З 3 24 км 1/1 800 м
[]
+11.4 +8.2 81 +10 +10 1030.6 1025.5
04 14.09 З 4 20 км 9/9 750 м
[]
+11.8 +8.7 81 +10 +10 1030.5 1025.4
05 14.09 З 4 26 км ясно +11.6 +8.0 79 +9 +9 1030.7 1025.6
06 14.09 З 3 23 км 3/3 840 м
[]
+12.0 +8.8 81 +10 +11 1030.8 1025.7 +11.2 +13.6
07 14.09 З 4 21 км ясно +13.6 +8.9 73 +12 +14 1031.2 1026.1
08 14.09 З 6 27 км 5/5 840 м
[]
+14.5 +8.8 69 +13 +14 1031.3 1026.3
09 14.09 З 6
{11}
30 км 5/5 840 м
[]
+15.0 +8.8 66 +13 +14 1031.2 1026.2
10 14.09 З 6 25 км 8/8 900 м
[]
+15.8 +8.9 64 +14 +15 1031.0 1026.0
11 14.09 З 6 24 км 5/5 900 м
[]
+15.5 +8.5 63 +14 +16 1030.9 1025.8
12 14.09 З 7
{12}
30 км 8/8 960 м
[]
+15.5 +8.3 62 +14 +14 1030.6 1025.6
13 14.09 З 7 29 км 5/5 1020 м
[]
+16.6 +8.6 59 +15 +16 1029.9 1024.9
14 14.09 З 6 35 км 1/1 1050 м
[]
+16.6 +8.0 57 +16 +17 1029.2 1024.2
15 14.09 З 6
{11}
40 км 1/1 1200 м
[]
+16.3 +6.7 53 +15 +16 1028.6 1023.6
16 14.09 З 5 45 км ясно +15.6 +7.4 58 +14 +15 1027.6 1022.6
17 14.09 ЮЗ 3 50 км 1/1 1500 м
[]
+14.5 +8.1 65 +14 +14 1027.0 1021.9
18 14.09 ЮЗ 2
{11}
50 км ясно +12.8 +7.3 69 +12 +12 1026.4 1021.4 +12.0 +17.2
19 14.09 ЮЗ 2 н/о 8/0
[]
+12.1 +8.1 77 +12 +12 1026.0 1020.9
20 14.09 ЮЗ 3 50 км 6/0
[]
+12.6 +7.9 73 +11 +11 1024.6 1019.5
21 14.09 ЮЗ 3 50 км 1/0
[]
+11.9 +8.0 77 +11 +11 1023.9 1018.8
22 14.09 ЮЗ 3 50 км ясно +11.5 +8.6 82 +10 +10 1022.9 1017.8
23 14.09 ЮЗ 4 45 км ясно +12.0 +9.4 84 +10 +10 1021.5 1016.5
00 15.09 ЮЗ 5 50 км 9/0 2000 м
[]
+12.6 +9.5 81 +10 +10 1020.3 1015.3
01 15.09 ЮЗ 5 45 км 5/0 2000 м
[]
+13.2 +9.9 80 +11 +11 1018.5 1013.5
02 15.09 ЮЗ 6 45 км 9/0 2000 м
[]
+13.7 +10.1 79 +12 +12 1017.3 1012.3
03 15.09 ЮЗ 6
{12}
45 км 9/9 630 м
[]
+13.8 +10.1 78 +12 +12 1015.8 1010.8
04 15.09 ЮЗ 6 45 км 6/0
[]
+13.8 +10.0 78 +12 +12 1014.1 1009.1
05 15.09 ЮЗ 7 45 км 6/0
[]
+14.0 +10.1 77 +12 +12 1012.8 1007.8
06 15.09 ЮЗ 7
{15}
35 км 9/9 720 м
[]
+14.4 +10.6 78 +12 +12 1012.2 1007.2 +11.3 +14.6
07 15.09 ЮЗ 7 23 км 9/9 570 м
[]
+14.9 +11.6 81 +13 +13 1011.4 1006.4
08 15.09 З 7 8000 м слаб. ливневой дождь 9/9 420 м
[]
+14.7 +13.2 91 +13 +13 1010.6 1005.7
09 15.09 З 8-13
{14}
7000 м слаб. ливневой дождь 9/9 360 м
[]
+15.4 +13.5 88 +13 +13 1010.9 1005.9 0.0
10 15.09 З 5 45 км в посл. час дождь {ливн. осадки} 10/10 630 м
[]
+13.4 +10.3 81 +11 +11 1011.5 1006.6 0.3
11 15.09 З 7 29 км 9/9 1020 м
[]
+14.6 +9.2 70 +13 +13 1011.9 1007.0
12 15.09 З 8-15
{16}
н/о {ливн. осадки, дождь} 6/6 900 м
[]
+16.3 +8.7 61 +15 +15 1011.5 1006.6 0.3
13 15.09 З 9 н/о н/о +15.2 +6.5 56 +13 +13 1011.4 1006.5
14 15.09 З 8 21 км 9/9 1170 м
[]
+15.0 +6.5 57 +13 +13 1011.7 1006.8
15 15.09 З 7
{12}
18 км 4/4 1110 м
[]
+14.6 +8.2 65 +13 +13 1012.2 1007.3
16 15.09 З 8 15 км в посл. час дождь {ливн. осадки} 9/9 1380 м
[]
+13.7 +5.7 58 +11 +11 1012.2 1007.2
17 15.09 З 7 15 км 6/6 1200 м
[]
+13.3 +6.5 63 +11 +11 1012.0 1007.0
18 15.09 З 7-12
{18}
17 км {ливн. осадки, дождь} 9/9 1080 м
[]
+13.2 +7.1 66 +11 +11 1012.2 1007.2 0.0
19 15.09 З 8 18 км в посл. час морось {ливн. осадки, дождь} 9/9 1230 м
[]
+13.0 +6.6 65 +10 +10 1012.3 1007.3
20 15.09 З 8 17 км в посл. час морось {ливн. осадки, дождь} 8/8 960 м
[]
+12.7 +6.8 67 +10 +10 1012.0 1007.1
21 15.09 З 9
{17}
15 км {ливн. осадки, дождь} 9/9 1000 м
[]
+12.8 +6.5 65 +10 +10 1012.2 1007.2 0.0
22 15.09 З 8 19 км 9/9 1000 м
[]
+12.7 +7.0 68 +10 +10 1012.5 1007.5
23 15.09 З 10 20 км 9/9 1020 м
[]
+12.9 +6.7 66 +10 +10 1012.7 1007.7
00 16.09 З 8-13
{17}
22 км {ливн. осадки, дождь} 9/9 1110 м
[]
+12.6 +6.4 66 +10 +10 1012.5 1007.5
01 16.09 З 8 18 км 9/9 930 м
[]
+12.5 +7.2 70 +9 +9 1012.5 1007.5
02 16.09 З 8 21 км 6/6 960 м
[]
+12.2 +7.2 71 +9 +9 1013.0 1008.0
03 16.09 З 9-14
{16}
18 км 3/3 960 м
[]
+12.2 +7.0 71 +9 +9 1012.4 1007.4
04 16.09 З 8 20 км 4/4 930 м
[]
+12.0 +6.4 69 +9 +9 1012.7 1007.7
05 16.09 З 8 25 км ясно +11.9 +5.3 64 +9 +9 1012.5 1007.5
06 16.09 З 6
{16}
21 км ясно +11.9 +5.9 67 +9 +9 1012.5 1007.5 +11.6 +13.3
07 16.09 З 7 17 км 3/3 960 м
[]
+12.8 +6.1 64 +10 +10 1012.6 1007.6
08 16.09 З 7 20 км 5/5 900 м
[]
+13.2 +7.0 66 +11 +11 1012.8 1007.9
09 16.09 З 6
{15}
23 км 8/8 900 м
[]
+13.2 +7.0 66 +11 +11 1012.9 1007.9
10 16.09 З 8 18 км 9/9 1020 м
[]
+13.6 +6.2 61 +11 +11 1013.0 1008.1
11 16.09 З 8 19 км 8/8 1000 м
[]
+13.7 +6.6 62 +11 +11 1013.0 1008.0
12 16.09 З 8
{15}
21 км 9/9 1170 м
[]
+14.0 +5.5 57 +12 +12 1013.0 1008.0
13 16.09 З 8 26 км ясно +14.6 +4.1 49 +13 +14 1012.9 1008.0
14 16.09 З 6 30 км 5/5 1200 м
[]
+14.8 +5.6 54 +13 +14 1012.9 1007.9
15 16.09 З 6
{14}
35 км 8/8 1260 м
[]
+14.7 +5.6 54 +13 +13 1012.7 1007.8
16 16.09 З 7 30 км 1/1 1320 м
[]
+14.0 +5.1 55 +12 +12 1012.6 1007.7
17 16.09 З 5 45 км 3/3 1260 м
[]
+13.0 +6.0 62 +11 +11 1012.8 1007.8
18 16.09 З 5
{14}
50 км 6/6 1020 м
[]
+12.7 +6.3 65 +11 +11 1012.9 1007.9 +11.8 +15.0
19 16.09 З 4 50 км {ливн. осадки, морось} 4/4 1000 м
[]
+11.8 +6.6 70 +10 +10 1012.9 1007.9
20 16.09 З 3 50 км {ливн. осадки, дождь} 6/6 840 м
[]
+11.0 +7.6 80 +9 +9 1012.7 1007.7
21 16.09 З 4
{11}
40 км {ливн. осадки, дождь} 3/3 800 м
[]
+11.3 +7.4 77 +9 +9 1012.3 1007.3 0.0
22 16.09 З 4 24 км слаб. ливневой дождь 9/9 960 м
[]
+11.4 +7.9 79 +9 +9 1011.8 1006.8
23 16.09 З 4 40 км в посл. час дождь {ливн. осадки} 8/8 750 м
[]
+11.2 +7.8 80 +9 +9 1011.4 1006.4
00 17.09 З 5
{11}
30 км {ливн. осадки, дождь} 9/9 800 м
[]
+11.5 +7.7 77 +9 +9 1010.8 1005.8 0.0
01 17.09 З 5 23 км слаб. ливневой дождь {морось} 9/9 750 м
[]
+10.9 +8.3 84 +8 +8 1010.2 1005.2
02 17.09 З 5 35 км {ливн. осадки} 9/9 720 м
[]
+11.0 +8.0 82 +8 +8 1009.5 1004.5
03 17.09 З 6
{9}
40 км {ливн. осадки, морось} 6/6 930 м
[]
+11.1 +7.0 76 +8 +8 1008.7 1003.7 0.0
04 17.09 З 6 24 км слаб. ливневой дождь 9/9 700 м
[]
+10.4 +7.3 81 +7 +7 1007.8 1002.8 0.3
05 17.09 З 7 40 км {ливн. осадки} 3/3 1410 м
[]
+10.2 +5.2 71 +7 +7 1007.5 1002.5
06 17.09 З 7
{12}
30 км {ливн. осадки, дождь} 3/3 1050 м
[]
+10.4 +4.7 68 +7 +7 1007.1 1002.1 +9.8 +12.9 0.3
07 17.09 З 8 35 км 4/0
[]
+11.2 +4.6 64 +8 +8 1006.9 1001.9
08 17.09 З 8 30 км 9/9 870 м
[]
+10.7 +4.8 67 +7 +7 1006.5 1001.6
09 17.09 З 6
{17}
40 км 8/8 750 м
[]
+9.7 +5.1 73 +6 +7 1006.6 1001.6
10 17.09 З 8 50 км 8/8 1500 м
[]
+9.7 +4.5 70 +6 +6 1006.1 1001.1
11 17.09 З 8 30 км 9/9 900 м
[]
+11.4 +4.7 63 +8 +8 1005.1 1000.1
12 17.09 З 8-14
{17}
40 км 4/4 1050 м
[]
+12.0 +4.1 58 +9 +10 1004.9 999.9
13 17.09 З 7 35 км 5/5 1050 м
[]
+10.4 +4.6 67 +7 +8 1004.7 999.7
14 17.09 З 6 35 км слаб. ливневой дождь 5/5 1500 м
[]
+10.4 +4.5 67 +7 +8 1004.9 999.9
15 17.09 СЗ 5-12
{16}
50 км {ливн. осадки, дождь} 5/5 1230 м
[]
+12.0 +3.6 56 +10 +10 1005.5 1000.6 0.0
16 17.09 СЗ 6 50 км {ливн. осадки} 6/6 1350 м
[]
+11.5 +3.2 57 +9 +9 1006.1 1001.2
17 17.09 СЗ 4 50 км в посл. час дождь {ливн. осадки} 4/4 1380 м
[]
+9.9 +4.6 70 +7 +7 1006.8 1001.8 0.4
18 17.09 З 4
{19}
40 км слаб. ливневой дождь 9/9 1300 м
[]
+7.7 +5.4 85 +5 +5 1008.4 1003.3 +7.7 +12.3 0.8
19 17.09 СЗ 4 30 км слаб. ливневой дождь 9/9 1140 м
[]
+8.5 +4.8 78 +5 +5 1009.3 1004.2 0.8
20 17.09 СЗ 5 16 км ливневой дождь 9/9 1350 м
[]
+8.5 +5.6 82 +5 +5 1010.7 1005.6 0.5
21 17.09 З 2
{14}
50 км {ливн. осадки} 6/6 1140 м
[]
+7.2 +5.8 91 +5 +5 1011.7 1006.6 1
22 17.09 З 3 45 км ясно +6.0 +5.2 95 +3 +3 1012.5 1007.4
23 17.09 З 3 40 км 1/1 1500 м
[]
+5.9 +5.1 95 +3 +3 1013.0 1007.9
00 18.09 З 4
{14}
12 км ливневой дождь 9/9 1410 м
[]
+8.3 +6.9 91 +5 +5 1013.5 1008.4 0.9
01 18.09 З 2 40 км в посл. час снег {ливн. осадки} ясно +6.8 +6.1 95 +5 +5 1013.6 1008.5 0.4
02 18.09 З 3 35 км ясно +6.8 +6.4 97 +4 +4 1013.8 1008.7
03 18.09 З 3 30 км {ливн. осадки, дымка} ясно +7.2 +6.6 96 +4 +4 1014.1 1009.1 0.4
04 18.09 З 3 28 км ясно +7.9 +7.0 94 +5 +5 1014.3 1009.2
05 18.09 З 3 35 км ясно +8.0 +7.3 95 +5 +5 1014.9 1009.8
06 18.09 З 3 40 км {ливн. осадки, дымка} ясно +8.8 +7.8 93 +6 +7 1015.4 1010.3 +5.3 +9.0
07 18.09 З 4 29 км 6/6 800 м
[]
+11.6 +9.3 86 +9 +10 1015.8 1010.8
08 18.09 З 5 35 км 8/8 480 м
[]
+11.9 +9.3 84 +9 +10 1016.4 1011.4
09 18.09 С 2 35 км слаб. ливневой дождь 9/9 540 м
[]
+10.6 +8.0 84 +9 +10 1017.3 1012.3 0.1
10 18.09 45 км в посл. час дождь {ливн. осадки} 9/9 570 м
[]
+10.8 +8.1 83 1017.8 1012.7 0.4
11 18.09 С 1 50 км 9/9 800 м
[]
+10.7 +7.5 81 +10 +11 1018.2 1013.1
12 18.09 С 1
{8}
50 км слаб. ливневой дождь 9/9 930 м
[]
+10.4 +7.1 80 +10 +11 1018.5 1013.5 0.4
13 18.09 СВ 1 50 км сильн. ливневой дождь 9/9 930 м
[]
+9.7 +8.0 89 +9 +10 1018.7 1013.6 1
14 18.09 З 2 45 км {ливн. осадки} 9/9 930 м
[]
+12.5 +8.1 75 +12 +12 1018.7 1013.7
15 18.09 СЗ 5 40 км {ливн. осадки} 1/1 1050 м
[]
+13.2 +6.5 64 +11 +13 1018.7 1013.7 2
16 18.09 СЗ 5 50 км ясно +12.6 +5.5 62 +11 +11 1019.0 1014.0
17 18.09 СЗ 3 50 км ясно +11.5 +5.8 68 +10 +10 1019.2 1014.2
18 18.09 З 2 50 км {ливн. осадки} ясно +9.3 +5.9 79 +8 +8 1019.7 1014.7 +8.7 +13.2
19 18.09 З 3 50 км 5/5 1170 м
[]
+8.9 +5.9 81 +7 +7 1020.1 1015.0
20 18.09 З 3 50 км 4/4 1170 м
[]
+8.6 +5.8 83 +6 +6 1020.5 1015.4
21 18.09 З 2 50 км ясно +7.6 +5.8 88 +6 +6 1021.0 1015.9
22 18.09 СЗ 2 40 км ясно +5.5 +4.9 96 +3 +3 1021.4 1016.2
23 18.09 З 2 50 км ясно +6.8 +4.5 85 +5 +5 1021.8 1016.7
00 19.09 СЗ 2 50 км ясно +6.5 +5.6 94 +4 +4 1022.0 1016.9
01 19.09 штиль 0 50 км ясно +5.3 +4.6 95 +4 +4 1022.5 1017.3
02 19.09 З 2 2700 м дымка 1/1 1350 м
[]
+3.9 +3.4 97 +1 +1 1022.7 1017.5
03 19.09 З 1 27 км {дымка} ясно +4.2 +3.9 98 +3 +3 1022.9 1017.7
04 19.09 З 2 40 км ясно +5.1 +4.8 98 +3 +3 1023.1 1018.0
05 19.09 З 1 1100 м дымка ясно +4.5 +4.2 98 +3 +3 1023.6 1018.4
06 19.09 З 3 10 км в посл. час туман {дымка} ясно +7.5 +7.2 98 +5 +5 1023.8 1018.7 +3.4 +9.5
07 19.09 З 2 25 км ясно +9.6 +9.3 98 +8 +9 1024.2 1019.1
08 19.09 СЗ 2 35 км 1/1 540 м
[]
+12.8 +9.2 79 +12 +15 1024.9 1019.9
09 19.09 С 2 50 км ясно +13.3 +7.2 67 +13 +18 1025.4 1020.4
10 19.09 С 2 35 км ясно +14.0 +6.7 61 +14 +20 1025.9 1020.9
11 19.09 С 3 45 км ясно +14.2 +3.8 50 +13 +19 1026.5 1021.5
12 19.09 СЗ 4 40 км ясно +14.0 +4.9 54 +13 +18 1026.6 1021.6
13 19.09 СЗ 4 40 км ясно +13.9 +3.3 49 +13 +16 1026.4 1021.3
14 19.09 СЗ 4 50 км ясно +12.8 +5.0 59 +11 +14 1026.7 1021.7
15 19.09 СЗ 4 50 км ясно +12.3 +5.2 62 +11 +12 1026.7 1021.6
16 19.09 СЗ 2 50 км ясно +11.8 +6.0 68 +11 +12 1026.7 1021.7
17 19.09 СЗ 2 50 км ясно +10.6 +5.9 73 +10 +10 1026.6 1021.5
18 19.09 З 1 50 км 8/0
[]
+7.3 +5.9 91 +6 +6 1027.0 1021.9 +7.3 +14.8
19 19.09 штиль 0 50 км 9/0
[]
+7.6 +6.7 94 +7 +7 1027.0 1021.8
20 19.09 З 2 50 км 1/1 1170 м
[]
+6.5 +5.9 96 +4 +4 1027.0 1021.9
21 19.09 штиль 0 50 км ясно +6.0 +5.5 97 +5 +5 1026.9 1021.7
22 19.09 З 1 15 км ясно +5.5 +5.2 98 +4 +4 1026.6 1021.4
23 19.09 З 1 17 км 1/0
[]
+5.0 +4.7 98 +3 +3 1026.6 1021.4
00 20.09 штиль 0 50 км в посл. час туман {дымка} 5/0
[]
+5.2 +5.0 99 +4 +4 1026.5 1021.3

 

Местоположение метеостанции Сяелсмарк (Дания): широта 55.88 долгота 12.41 высота над уровнем моря 41 м.

В архиве по умолчанию представлена погода в Сяелсмарке за последнюю неделю. Архивные данные за месяц целиком и за предыдущие месяцы, начиная с января 2011 года, Вы можете получить, выбрав интересующий диапазон дат из раскрывающегося списка и нажав кнопку "Ввод!".


*Определитесь, кто Вы:
робот инопланетянин человек

Внимание! Время в таблицах - всемирное. Для получения местного времени необходимо прибавить поправку, которая равна 1 ч.

Смотрите также архив погоды в соседних городах и на ближайших метеорологических станциях:

Погода в Копенгагене Jaegers (Дания) (16 км)
Погода на Мысе Nakkehoved (Дания) (27 км)
Погода в Хельсингборге (Швеция) (28 км)
Погода в Копенгагене (Дания) (33 км)
Погода в Роскилле (Дания) (38 км)
Погода на Дрогдене (Дания) (44 км)
Погода в Хольбеке (Дания) (53 км)
Погода в Мальмё (Швеция) (54 км)
Погода в Ангелхольме (Швеция) (54 км)
Погода в Кёге (Дания) (56 км)

Пояснения к столбцам:

Ветер - указаны скорость ветра в м/с - средняя за 10 мин, порывы в срок и между сроками (в фигурных скобках) и направление, откуда дует ветер: С - северный, СВ - северо-восточный, В - восточный, ЮВ - юго-восточный, Ю - южный, ЮЗ - юго-западный, З - западный, СЗ - северо-западный.
Видимость - горизонтальная дальность видимости в метрах или километрах. При видимости от 1 до 10 км при отсутствии осадков обычно наблюдается дымка, при ухудшении видимости до 1 км и менее - туман. В сухую погоду видимость может ухудшаться дымом, пылью или мглою.
Явления - указаны атмосферные явления, наблюдавшиеся в срок или в последний час перед сроком; фигурными скобками обозначены явления, наблюдавшиеся между сроками (за 1-3 часа до срока); квадратными скобками обозначены град или гололедные отложения с указанием их диаметра в мм.
Облачность - указаны через наклонную черту общая и нижняя облачность в баллах и высота нижней границы облаков в метрах; квадратными скобками обозначены формы облаков: Ci - перистые, Cs - перисто-слоистые, Cc - перисто-кучевые, Ac - высококучевые, As - высокослоистые, Sc - слоисто-кучевые, Ns - слоисто-дождевые, Cu - кучевые, Cb - кучево-дождевые. Подробнее классификацию облаков см. в Атласе облаков (PDF).
T - Температура воздуха - температура, измеренная на высоте 2 м над землей.
Td - Температура точки росы - температура, при понижении до которой содержащийся в воздухе водяной пар достигнет насыщения.
f - Относительная влажность воздуха - влажноcть воздуха, измеренная на высоте 2 м над землей.
Te - Эффективная температура - температура, которую ощущает одетый по сезону человек в тени. Характеристика душности погоды. При расчете учитывается влияние влажности воздуха и скорости ветра на теплоощущения человека.
Tes - Эффективная температура на солнце - температура, которую ощущает человек, с поправкой на солнечный нагрев. Характеристика знойности погоды. Зависит от высоты солнца над горизонтом, облачности и скорости ветра. Ночью, в пасмурную погоду, а также при ветре 12 м/с и более поправка равна нулю.
P - Атмосферное давление - приведенное к уровню моря атмосферное давление.
Po - Атмосферное давление - измеренное на уровне метеостанции атмосферное давление.
Tmin - Минимальная температура - минимум температуры воздуха на высоте 2 м над землей.
Tmax - Максимальная температура - максимум температуры воздуха на высоте 2 м над землей.
R - Количество осадков - Количество выпавших осадков за период времени, мм. При наведении курсора мыши на число - период времени, за который выпало указанное количество осадков.
R24 - Количество осадков - Количество выпавших осадков за 24 часа, мм.
S - Снежный покров - Высота снежного покрова, см. При наведении курсора мыши на число - состояние снежного покрова и степень покрытия местности в баллах.